Weather History for Erie, PA

Change the Weather History Date:

Wednesday, October 5, 2011

  Actual Average Record
Temperature  
Mean Temperature 56 °F 57 °F  
Max Temperature 66 °F 64 °F 87 °F (2007)
Min Temperature 46 °F 49 °F 36 °F (1935)
Degree Days  
Heating Degree Days 9 9  
Month to date heating degree days 58 42  
Since 1 July heating degree days 131 166  
Cooling Degree Days 0 1  
Month to date cooling degree days 0 5  
Year to date cooling degree days 825 634  
Growing Degree Days 5 (Base 50)    
Moisture  
Dew Point 52 °F    
Average Humidity 82    
Maximum Humidity 100    
Minimum Humidity 63    
Precipitation  
Precipitation 0.00 in 0.15 in 1.22 in (1983)
Month to date precipitation 1.48 0.74  
Year to date precipitation 42.69 31.18  
Snow  
Snow 0.00 in 0.00 in - ()
Month to date snowfall 0.0 0.0  
Since 1 July snowfall 0.0 0.0  
Since 1 September snowfall 0.0 0.0  
Snow Depth 0.00 in    
Sea Level Pressure  
Sea Level Pressure 30.26 in    
Wind  
Wind Speed 4 mph (SW)    
Max Wind Speed 13 mph    
Max Gust Speed 16 mph    
Visibility 9 miles    
Events      
T = Trace of Precipitation, MM = Missing Value Source: NWS Daily Summary

Daily Weather History Graph

Daily Weather History Graph

Search for Another Location

Airport:

Trip Planner

Search our weather history database for the weather conditions in past years. The results will help you decide how hot, cold, wet, or windy it might be!

Date:

Astronomy

Oct. 05, 2011 Rise Set
Actual Time 7:21 AM EDT 6:55 PM EDT
Civil Twilight 6:53 AM EDT 7:23 PM EDT
Nautical Twilight 6:21 AM EDT 7:56 PM EDT
Astronomical Twilight 5:48 AM EDT 8:28 PM EDT
Moon 3:40 PM EDT (10/5) 1:00 AM EDT (10/5)
Length of Visible Light 12h 29m
Length of Day
11h 34m
Waxing Gibbous, 66% of the Moon is Illuminated
Oct 5
Waxing Gibbous
Oct 11
Full
Oct 19
Last Quarter
Oct 26
New
Nov 2
First Quarter

Hourly Weather History & Observations

Time (EDT) Temp. Windchill Dew Point Humidity Pressure Visibility Wind Dir Wind Speed Gust Speed Precip Events Conditions
12:12 AM 50.0 °F - 48.2 °F 94% 30.21 in 2.5 mi Calm Calm - N/A   Clear
12:19 AM 50.0 °F - 48.2 °F 94% 30.21 in 7.0 mi Calm Calm - N/A   Clear
12:51 AM 50.0 °F - 48.0 °F 93% 30.22 in 9.0 mi Calm Calm - N/A   Clear
1:51 AM 48.0 °F - 46.9 °F 96% 30.22 in 8.0 mi Calm Calm - N/A   Clear
2:51 AM 46.9 °F - 46.0 °F 97% 30.23 in 9.0 mi Calm Calm - N/A   Clear
3:51 AM 46.0 °F 43.1 °F 45.0 °F 96% 30.22 in 10.0 mi South 5.8 mph - N/A   Clear
4:51 AM 48.0 °F - 46.0 °F 93% 30.22 in 9.0 mi South 4.6 mph - N/A   Clear
5:51 AM 46.9 °F - 45.0 °F 93% 30.24 in 10.0 mi South 3.5 mph - N/A   Clear
6:51 AM 48.0 °F - 46.0 °F 93% 30.25 in 10.0 mi South 5.8 mph - N/A   Clear
7:51 AM 50.0 °F - 48.0 °F 93% 30.26 in 8.0 mi South 4.6 mph - N/A   Clear
8:46 AM 53.6 °F - 51.8 °F 94% 30.26 in 7.0 mi South 5.8 mph - N/A   Scattered Clouds
8:51 AM 54.0 °F - 52.0 °F 93% 30.27 in 6.0 mi South 4.6 mph - N/A   Partly Cloudy
9:18 AM 55.4 °F - 53.6 °F 94% 30.27 in 10.0 mi SSW 4.6 mph - N/A   Mostly Cloudy
9:25 AM 57.2 °F - 53.6 °F 88% 30.27 in 10.0 mi South 4.6 mph - N/A   Partly Cloudy
9:51 AM 59.0 °F - 54.0 °F 83% 30.28 in 10.0 mi SSW 4.6 mph - N/A   Partly Cloudy
10:11 AM 60.8 °F - 55.4 °F 82% 30.27 in 10.0 mi SSW 6.9 mph - N/A   Mostly Cloudy
10:19 AM 60.8 °F - 55.4 °F 82% 30.27 in 10.0 mi SW 5.8 mph - N/A   Scattered Clouds
10:47 AM 62.6 °F - 55.4 °F 77% 30.28 in 10.0 mi Variable 5.8 mph - N/A   Mostly Cloudy
10:51 AM 63.0 °F - 55.9 °F 78% 30.28 in 10.0 mi Variable 4.6 mph - N/A   Mostly Cloudy
11:51 AM 64.0 °F - 57.0 °F 78% 30.28 in 10.0 mi WSW 10.4 mph - N/A   Mostly Cloudy
12:09 PM 64.4 °F - 57.2 °F 77% 30.28 in 10.0 mi WSW 10.4 mph - N/A   Scattered Clouds
12:51 PM 64.9 °F - 57.9 °F 78% 30.27 in 10.0 mi West 10.4 mph - N/A   Partly Cloudy
1:24 PM 64.4 °F - 57.2 °F 77% 30.26 in 10.0 mi West 9.2 mph - N/A   Mostly Cloudy
1:47 PM 64.4 °F - 57.2 °F 77% 30.26 in 10.0 mi West 8.1 mph - N/A   Scattered Clouds
1:51 PM 64.0 °F - 57.9 °F 80% 30.27 in 10.0 mi West 10.4 mph - N/A   Partly Cloudy
2:24 PM 62.6 °F - 57.2 °F 82% 30.25 in 9.0 mi West 10.4 mph - N/A   Mostly Cloudy
2:36 PM 64.4 °F - 57.2 °F 77% 30.25 in 10.0 mi West 9.2 mph - N/A   Mostly Cloudy
2:51 PM 64.0 °F - 57.9 °F 80% 30.26 in 9.0 mi Variable 4.6 mph - N/A   Overcast
3:33 PM 64.4 °F - 55.4 °F 73% 30.25 in 10.0 mi West 8.1 mph - N/A   Scattered Clouds
3:51 PM 64.9 °F - 55.9 °F 73% 30.26 in 10.0 mi NNW 6.9 mph - N/A   Clear
4:51 PM 64.0 °F - 55.0 °F 73% 30.27 in 10.0 mi Calm Calm - N/A   Clear
5:51 PM 64.0 °F - 52.0 °F 65% 30.27 in 10.0 mi North 3.5 mph - N/A   Clear
6:51 PM 60.1 °F - 55.0 °F 83% 30.27 in 10.0 mi NE 4.6 mph - N/A   Clear
7:51 PM 57.9 °F - 54.0 °F 87% 30.28 in 10.0 mi ENE 4.6 mph - N/A   Clear
8:51 PM 55.9 °F - 51.1 °F 84% 30.29 in 10.0 mi Calm Calm - N/A   Clear
9:51 PM 55.9 °F - 48.9 °F 77% 30.31 in 10.0 mi Calm Calm - N/A   Clear
10:51 PM 53.6 °F - 48.2 °F 82% 30.31 in 10.0 mi Calm Calm - N/A   Clear
11:51 PM 50.0 °F - 46.9 °F 89% 30.32 in 10.0 mi ENE 4.6 mph - N/A   Clear